Voltar ao catálogo

STARLINK-32879

AtivoComunicaçõesVLEO
NORAD 62957·PAYLOAD·🇺🇸 United States

Lançado Feb 11, 2025 de Vandenberg Space Force Base

Loading…

Próximas Passagens (próximas 24 horas)

TLE

AtualizadoSource: CelesTrak SupGP

Época: Sep 14, 2026, 22:48 UTC

1 62957C 25029K   26257.95048611  .00038654  00000+0  12432-2 0  2579
2 62957  53.1583  72.1243 0001220  82.4021 209.0119 15.31678795    12

Acompanhe STARLINK-32879 em tempo real com AllMySat

Download on the App Store